Location: Easter Hill Village
(37.9235°N, 122.3444°W)
Time: 21:07:59
(UTC+00:00)

Cosmos 1703 Rocket - Pass Details

Date: 16 September 2019
Orbit: 604 x 634 km, 82.5° (Epoch: 15 October)

Event Time Altitude Azimuth Distance (km) Brightness Sun altitude
Rises 13:17:54 0° 196° (SSW) 2,911 6.8 -7.5°
Reaches altitude 10° 13:20:10 10° 200° (SSW) 2,005 5.9 -7.1°
Maximum altitude 13:24:32 56° 279° (W) 751 3.7 -6.2°
Drops below altitude 10° 13:28:55 10° 358° (N) 2,004 6.3 -5.3°
Sets 13:31:11 0° 3° (N) 2,910 7.1 -4.9°
